sat.trackr.live / text

‹ back to catalog

T.MICROSAT-2

NORAD 68433 · 2026-067T

PAYLOAD ACTIVE UNKNOWN

§ Identity

Operator
Country
ROC
Launch date
2026-03-30
Launch site
AFWTR
Launch vehicle
Mass (kg)
RCS (m²)

External: N2YO · Heavens-Above · Gunter

§ Orbital elements

Epoch: 2026-09-19T08:04:21.980064Z

Period
94.85 min
Inclination
97.4670°
Eccentricity
0.0007528
Mean motion
15.18152632 rev/d
Perigee alt
506.2 km
Apogee alt
516.6 km
Semi-major
6,889.6 km
B*
1.4504e-4
RAAN
219.3639°
Arg perigee
92.4668°
Mean anomaly
267.7428°
Rev number
2,621

§ Raw data

T.MICROSAT-21 68433U 26067T   26262.33636551  .00002896  00000+0  14504-3 0  99962 68433  97.4670 219.3639 0007528  92.4668 267.7428 15.18152632 26210

JSON: /api/v1/satellites/68433 · /tle

For live sub-satellite position, see the globe view (requires WebGL).

§ Visibility from observer

Set your observer location to see the next 7 days of passes ≥ 10°. The values pass through the URL so the page stays shareable.

No JS? Fill the form by hand. The geolocation button needs JavaScript.

§ Radio — SatNOGS DB

ModeDescriptionDownlinkUplink
FSK Mode S - FSK50k - Telemetry AX.25 G3RUH 2.220 GHz
GFSK Mode U - GFSK9k6 - G3RUH AX.25 401.025 MHz

2 transmitters · refreshed weekly from db.satnogs.org